ATLAS AGENA D R/B

基本信息
目录编号:
2144
目录名称:
ATLAS AGENA D R/B
国际标识:
1966-031B
轨道中心:
EARTH
物体状态:
在轨
发射日期:
1966-04-08 UTC
国别:
美国 (US)
轨道信息
数据来源: 国际轨道数据
星历时间: 2026-07-14T09:59:31+0800
半长轴: 7120.268km
偏心率: 0.0008385
轨道倾角: 35.040°
近地点辐角: 232.162°
升交点赤经: 190.283°
平近点角: 127.831°
近地点: 736.16km
远地点: 748.102km
周期: 99.656分钟
每日圈数: 14.449682
详细信息
发射场:
AFETR
轨道高度:
LEO
数据来源:
AOE Integration Group
参考系:
TEME
时间系统:
UTC
历元类型:
SGP4
2D轨道图
3D轨道图
轨道高度分析图
轨道倾角分析图
轨道综合分析图
查看轨道综合分析图